Regional Weather Roundup
Issued by NWS

Home | Current Version | Previous Version | Text Only | Print | Product List | Glossary On
Versions: 1 2 3 4 5 6 7 8 9 10 11 12 13 14 15 16 17 18 19 20 21 22 23 24 25 26 27 28 29 30 31 32 33 34 35 36 37 38 39 40 41 42 43 44 45 46 47 48 49 50
000
ASUS43 KLSX 280757
RWRMO

WEATHER SUMMARY FOR MISSOURI
NATIONAL WEATHER SERVICE SPRINGFIELD MO
300 AM CDT SAT MAY 28 2016

NOTE: "FAIR" INDICATES FEW OR NO CLOUDS BELOW 12,000 FEET WITH NO
       SIGNIFICANT WEATHER AND/OR OBSTRUCTIONS TO VISIBILITY.
       CURRENT SKY AND/OR WEATHER CONDITIONS ARE NOT AVAILABLE FOR
       CHILLICOTHE AND FARMINGTON.

MOZ001>031-035>038-043-044-053-054-280900-
...NORTHERN AND WESTERN MISSOURI...

CITY           SKY/WX    TMP DP  RH WIND       PRES   REMARKS
KANSAS CTY INT PTCLDY    57  56  96 S5        29.75R
LEE`S SUMMIT   CLOUDY    59  57  93 S6        29.76R
ST JOSEPH      PTCLDY    59  57  93 S6        29.73F
CHILLICOTHE      N/A     61  60  97 S3        29.75R

$$
MOZ066>068-077>081-088>096-101>105-280900-
...SOUTHWEST MISSOURI...

CITY           SKY/WX    TMP DP  RH WIND       PRES   REMARKS
SPRINGFIELD    CLOUDY    66  61  84 SE9       29.82S
JOPLIN         CLOUDY    63  61  93 SE7       29.79F

$$
MOZ032>034-039>042-045>050-055>058-069>072-280900-
...CENTRAL MISSOURI...

CITY           SKY/WX    TMP DP  RH WIND       PRES   REMARKS
COLUMBIA       NOT AVBL
JEFFERSON CITY CLOUDY    68  66  93 SE7       29.80F
ROLLA          CLOUDY    64  63  96 S7        29.83R
SEDALIA        CLOUDY    62  59  90 SE7       29.79F
WARRENSBURG    CLOUDY    59  55  88 SE3       29.75F

$$
MOZ051-052-059>065-280900-
...EAST CENTRAL MISSOURI...

CITY           SKY/WX    TMP DP  RH WIND       PRES   REMARKS
ST LOUIS INTL  PTCLDY    70  65  84 S8        29.85R
SPIRIT OF STL  PTCLDY    70  66  88 S6        29.83R
ST CHARLES     MOCLDY    69  67  93 S8        29.84R

$$
MOZ072>076-082>087-097>100-106>115-280900-
...SOUTH CENTRAL AND SOUTHEAST MISSOURI...

CITY           SKY/WX    TMP DP  RH WIND       PRES   REMARKS
CAPE GIRARDEAU CLOUDY    67  65  93 S7        29.90R
POPLAR BLUFF   CLOUDY    68  64  87 SE7       29.88S
WEST PLAINS    MOCLDY    67  63  87 S9        29.88R

$$



USA.gov is the U.S. government's official web portal to all federal, state and local government web resources and services.